#timestamp,LO_Frequency,Hit,StdDev 
1668996015.4,286047001.6,N
1668996035.3,286047001.6,N
1668996055.1,286047002.1,N
1668996056.0,286047002.1,N
1668996075.8,286047001.6,N
1668996095.7,286047001.3,N
1668996115.5,286047004.2,Y
1668996135.4,286047002.5,P
1668996155.2,286047001.9,N
1668996175.0,286047000.3,N
1668996175.9,286047000.3,N
1668996195.8,286046999.8,N
1668996215.6,286047000.7,N
1668996235.5,286047000.3,N
1668996255.3,286047000.6,N
1668996275.1,286047000.1,N
1668996295.9,286046998.6,N
1668996315.7,286047001.2,N
1668996335.5,286047000.9,N
1668996355.4,286047000.4,N
1668996375.2,286046999.9,N
1668996395.1,286047001.2,N
1668996396.0,286047001.2,N
1668996415.8,286047000.4,N
1668996435.6,286047000.4,N
1668996455.5,286047000.7,N
1668996475.3,286047002.6,Y
1668996495.1,286047001.2,P
1668996515.9,286047000.3,N
1668996535.7,286047000.0,N
1668996555.6,286047002.6,Y
1668996575.4,286047000.0,P
1668996595.2,286047000.2,N
1668996615.1,286046998.7,P
1668996616.0,286046998.7,N
1668996635.8,286046998.0,N
1668996655.7,286046996.9,Y
1668996675.5,286046998.9,P
1668996695.3,286047000.7,N
1668996715.2,286046999.4,N
1668996735.0,286046999.2,N
1668996735.9,286046999.2,N
1668996755.7,286046998.9,N
1668996775.6,286046998.7,N
1668996795.4,286046999.3,N
1668996815.3,286046999.0,N
1668996835.1,286046998.9,N
1668996836.0,286046998.9,N
1668996855.8,286046999.3,N
1668996875.7,286046996.8,Y
1668996895.5,286046998.3,P
1668996915.4,286047001.1,N
1668996935.2,286047001.2,N
1668996955.0,286047000.9,N
1668996955.9,286047000.9,N
1668996975.8,286047000.6,N
1668996995.6,286047002.6,N
1668997015.5,286047000.1,N
1668997035.3,286046999.8,N
1668997055.1,286047002.5,N
1668997075.9,286047002.4,N
1668997095.7,286047002.4,N
1668997115.5,286047002.2,N
1668997135.4,286047001.4,N
1668997155.2,286047001.6,N
1668997175.1,286047001.6,N
1668997176.0,286047001.6,N
1668997195.8,286047000.2,N
1668997215.6,286047002.4,N
1668997235.5,286047004.3,Y
1668997255.3,286046998.4,P
1668997305.2,286046998.8,E
1668997315.1,286046998.8,N
1668997335.8,286046998.4,P
1668997355.7,286046998.8,P
1668997375.5,286047001.1,Y
1668997395.4,286047001.9,P
1668997415.2,286047002.1,N
1668997435.0,286047002.3,N
1668997435.9,286047002.3,N
1668997455.8,286047002.8,N
1668997475.6,286047001.8,N
1668997495.4,286047001.6,N
1668997515.3,286047002.6,N
1668997535.1,286047001.3,N
1668997555.9,286047003.9,Y
1668997575.7,286047000.5,P
1668997595.5,286047000.3,N
1668997615.4,286046998.2,N
1668997635.2,286047000.6,N
1668997655.1,286047001.0,N
1668997656.0,286047001.0,N
1668997675.8,286047002.7,N
1668997695.6,286047002.6,N
1668997715.5,286047002.2,N
1668997735.3,286047001.5,N
1668997785.2,286047001.4,E
1668997795.1,286047002.4,N
1668997796.0,286047002.4,P
1668997815.8,286047002.8,P
1668997835.7,286047000.7,Y
1668997855.5,286046995.2,P
1668997875.4,286046996.4,N
1668997895.2,286046993.7,N
1668997915.0,286046995.8,N
1668997915.9,286046995.8,N
1668997935.8,286046995.5,N
1668997955.6,286046997.7,N
1668997975.4,286046997.3,N
1668997995.3,286046997.2,N
1668998015.1,286046995.3,N
1668998035.9,286046997.6,N
1668998055.7,286047011.9,Y
1668998075.5,286047000.6,P
1668998095.4,286047000.2,N
1668998115.2,286047004.0,N
1668998135.0,286047003.7,N
1668998136.0,286047003.7,N
1668998155.8,286047002.5,N
1668998175.6,286047004.2,N
1668998195.5,286047003.2,N
1668998215.3,286047005.7,N
1668998235.1,286047005.7,N
1668998255.9,286047006.0,N
1668998275.7,286047003.0,N
1668998295.6,286047003.2,N
1668998315.4,286047003.9,N
1668998335.2,286047002.9,N
1668998355.1,286047003.4,N
1668998356.0,286047003.4,N
1668998375.8,286047005.9,N
1668998395.6,286047005.4,N
1668998415.5,286047005.8,N
1668998435.3,286047004.8,N
1668998455.2,286047005.8,N
1668998475.9,286047005.7,N
1668998495.7,286047004.9,N
1668998515.6,286047006.0,N
1668998535.4,286047001.3,N
1668998555.2,286047004.4,N
1668998575.1,286047004.0,N
1668998576.0,286047004.0,N
1668998595.8,286047003.8,N
1668998615.7,286047004.0,N
1668998635.5,286047001.6,N
1668998655.3,286047004.4,Y
1668998675.2,286046999.0,P
1668998695.0,286046999.0,N
1668998695.9,286046999.0,N
1668998715.7,286047001.1,N
1668998735.6,286046998.3,N
1668998755.4,286047001.1,N
1668998775.3,286046998.5,N
1668998795.1,286046999.6,N
1668998796.0,286046999.6,N
1668998815.8,286046998.3,N
1668998835.7,286047000.8,N
1668998855.5,286046998.5,N
1668998875.3,286046998.1,N
1668998895.2,286046997.2,N
1668998915.0,286046999.1,N
1668998915.9,286046999.1,N
1668998935.8,286046997.7,N
1668998955.6,286046999.4,N
1668998975.4,286046999.2,N
1668998995.3,286046996.6,N
1668999015.1,286046996.9,N
1668999035.8,286046999.5,N
1668999055.7,286046998.4,N
1668999075.5,286046998.1,N
1668999095.4,286046996.5,N
1668999115.2,286046999.1,N
1668999135.0,286046999.4,N
1668999135.9,286046999.4,N
1668999155.8,286046998.6,N
1668999175.6,286046998.3,N
1668999195.4,286046998.4,N
1668999215.3,286046999.5,N
1668999235.1,286046999.5,N
1668999255.9,286046999.2,N
1668999275.7,286046996.5,Y
1668999295.5,286046996.7,P
1668999315.4,286046997.0,N
1668999335.2,286046999.3,N
1668999355.1,286046999.5,N
1668999356.0,286046999.5,N
1668999375.8,286046999.6,N
1668999395.6,286046996.9,N
1668999415.5,286046999.4,N
1668999435.3,286046998.6,N
1668999455.1,286046998.9,N
1668999475.9,286046999.2,N
1668999495.7,286046999.5,N
1668999515.6,286046998.3,N
1668999535.4,286046998.3,N
1668999555.2,286046998.1,N
1668999575.1,286047000.5,N
1668999576.0,286047000.5,N
1668999595.8,286047000.4,N
